User: anonymous   Login
Location: Unspecified
(0.0000°N, 0.0000°E)
Time: 00:55:47
(UTC+00:00)
Language:

STARLINK-5650 - Orbit

View from above orbital plane
View from above orbital plane
View from above satellite
View from above satellite

Ground track
Ground track

The orbit is defined by the following mean orbital elements,

1 55475U          26145.34637978 +.00000000 +00000-0 +98442-6 0 00007
2 55475  43.0030 255.9728 0001602 275.8353  84.2316 15.27574409    06
Epoch (UTC): 25 May 2026 08:18:47
Eccentricity: 0.0001602
inclination: 43.0030°
perigee height: 482 km
apogee height: 484 km
right ascension of ascending node: 255.9728°
argument of perigee: 275.8353°
revolutions per day: 15.27574409
mean anomaly at epoch: 84.2316°

The dashed part of the orbit path shows where the satellite is in the earth's shadow,  

DLR